This is the latest recevied weather packets stored in our database for station/object N5JXS. If no packets are shown the sender has not sent any weather packets the latest 10 day(s).
| Time | Temp. | Humidity | Pressure | Rain* | Wind** | Luminosity | Snow |
|---|---|---|---|---|---|---|---|
| 1777859550 | 12.22° C | 36% | 1017.6 hPa | 0 mm | - | 0 W/m² | - |
| 1777859246 | 12.78° C | 33% | 1017.3 hPa | 0 mm | - | 1 W/m² | - |
| 1777858943 | 12.78° C | 33% | 1017.1 hPa | 0 mm | - | 2 W/m² | - |
| 1777858641 | 13.33° C | 32% | 1017 hPa | 0 mm | - | 6 W/m² | - |
| 1777858338 | 13.33° C | 31% | 1017.3 hPa | 0 mm | - | 9 W/m² | - |
| 1777858034 | 13.89° C | 32% | 1017.1 hPa | 0 mm | - | 11 W/m² | - |
| 1777857732 | 14.44° C | 30% | 1016.9 hPa | 0 mm | - | 13 W/m² | - |
| 1777857429 | 14.44° C | 29% | 1017.1 hPa | 0 mm | - | 18 W/m² | - |
| 1777857126 | 14.44° C | 28% | 1017.3 hPa | 0 mm | - | 20 W/m² | - |
| 1777856822 | 15° C | 27% | 1017 hPa | 0 mm | - | 19 W/m² | - |
| 1777856518 | 15° C | 27% | 1016.9 hPa | 0 mm | - | 18 W/m² | - |
| 1777856214 | 15° C | 26% | 1016.9 hPa | 0 mm | - | 21 W/m² | - |
| 1777855911 | 15° C | 26% | 1016.9 hPa | 0 mm | - | 26 W/m² | - |
| 1777855609 | 15° C | 25% | 1016.6 hPa | 0 mm | - | 32 W/m² | - |
| 1777855306 | 15.56° C | 25% | 1016.9 hPa | 0 mm | - | 35 W/m² | - |
| 1777855002 | 15.56° C | 26% | 1016.9 hPa | 0 mm | - | 34 W/m² | - |
| 1777854699 | 15.56° C | 26% | 1016.9 hPa | 0 mm | - | 37 W/m² | - |
| 1777854396 | 15.56° C | 25% | 1016.8 hPa | 0 mm | - | 38 W/m² | - |
| 1777854094 | 16.11° C | 25% | 1016.9 hPa | 0 mm | - | 35 W/m² | - |
| 1777853791 | 16.11° C | 24% | 1016.5 hPa | 0 mm | - | 43 W/m² | - |
| 1777853487 | 16.11° C | 24% | 1016.6 hPa | 0 mm | - | 52 W/m² | - |
| 1777853185 | 16.67° C | 24% | 1016.6 hPa | 0 mm | - | 53 W/m² | - |
| 1777852882 | 16.67° C | 23% | 1016.5 hPa | 0 mm | - | 57 W/m² | - |
| 1777852580 | 16.67° C | 23% | 1016.8 hPa | 0 mm | - | 69 W/m² | - |
| 1777852276 | 16.67° C | 24% | 1017 hPa | 0 mm | - | 82 W/m² | - |
* Rain latest hour (hover to see other rain measurements)
** Current wind speed in m/s (hover to see current wind gust speed)